Weather History for Youngstown, OH

Change the Weather History Date:

Sunday, February 3, 2013

  Actual Average Record
Temperature  
Mean Temperature 19 °F 26 °F  
Max Temperature 21 °F 34 °F 55 °F (1991)
Min Temperature 17 °F 19 °F -11 °F (1951)
Degree Days  
Heating Degree Days 46 39  
Month to date heating degree days 145 117  
Since 1 July heating degree days 3505 3740  
Cooling Degree Days 0 0  
Month to date cooling degree days 0 0  
Year to date cooling degree days 0 0  
Moisture  
Dew Point 13 °F    
Average Humidity 74    
Maximum Humidity 91    
Minimum Humidity 57    
Precipitation  
Precipitation 0.02 in 0.07 in 0.65 in (1952)
Month to date precipitation 0.28 0.22  
Year to date precipitation 2.09 2.77  
Snow  
Snow 0.60 in 0.50 in - ()
Month to date snowfall 6.4 1.4  
Since 1 July snowfall 46.3 37.4  
Snow Depth 5.00 in    
Sea Level Pressure  
Sea Level Pressure 29.89 in    
Wind  
Wind Speed 9 mph (WSW)    
Max Wind Speed 18 mph    
Max Gust Speed 23 mph    
Visibility 6 miles    
Events Snow    
T = Trace of Precipitation, MM = Missing Value Source: NWS Daily Summary

Daily Weather History Graph

Daily Weather History Graph

Search for Another Location

Airport:

Trip Planner

Search our weather history database for the weather conditions in past years. The results will help you decide how hot, cold, wet, or windy it might be!

Date:

Astronomy

Feb. 03, 2013 Rise Set
Actual Time 7:31 AM EST 5:42 PM EST
Civil Twilight 7:02 AM EST 6:11 PM EST
Nautical Twilight 6:29 AM EST 6:44 PM EST
Astronomical Twilight 5:57 AM EST 7:16 PM EST
Moon 12:57 AM EST (2/3) 11:17 AM EST (2/3)
Length of Visible Light 11h 08m
Length of Day
10h 10m
Waning Gibbous, 49% of the Moon is Illuminated
Feb 3
Waning Gibbous
Feb 10
New
Feb 17
First Quarter
Feb 25
Full
Mar 4
Last Quarter

Hourly Weather History & Observations

Time (EST) Temp. Windchill Dew Point Humidity Pressure Visibility Wind Dir Wind Speed Gust Speed Precip Events Conditions
12:51 AM 19.9 °F 12.1 °F 17.1 °F 89% 29.97 in 5.0 mi WSW 5.8 mph - 0.00 in Snow Light Snow
1:51 AM 19.9 °F 14.9 °F 17.1 °F 89% 29.95 in 3.0 mi SW 3.5 mph - 0.00 in Snow Light Snow
2:35 AM 19.4 °F 12.8 °F 17.6 °F 93% 29.89 in 4.0 mi WSW 4.6 mph - 0.00 in Snow Light Snow
2:51 AM 19.9 °F 13.4 °F 17.1 °F 89% 29.94 in 4.0 mi SW 4.6 mph - 0.00 in Snow Light Snow
3:51 AM 19.9 °F 13.4 °F 17.1 °F 89% 29.92 in 4.0 mi SW 4.6 mph - N/A Snow Light Snow
4:01 AM 19.4 °F 12.8 °F 17.6 °F 93% 29.85 in 5.0 mi SW 4.6 mph - 0.00 in Snow Light Snow
4:51 AM 19.4 °F 14.3 °F 15.8 °F 86% 29.84 in 4.0 mi WSW 3.5 mph - N/A Snow Light Snow
5:51 AM 19.9 °F 13.4 °F 17.1 °F 89% 29.89 in 5.0 mi SW 4.6 mph - 0.00 in Snow Light Snow
6:03 AM 19.4 °F 14.3 °F 17.6 °F 93% 29.83 in 5.0 mi SW 3.5 mph - 0.00 in Snow Light Snow
6:51 AM 19.9 °F 14.9 °F 17.1 °F 89% 29.88 in 5.0 mi SW 3.5 mph - 0.00 in Snow Light Snow
7:23 AM 19.4 °F 10.4 °F 15.8 °F 86% 29.83 in 5.0 mi West 6.9 mph - 0.00 in Snow Light Snow
7:39 AM 19.4 °F 11.5 °F 15.8 °F 86% 29.83 in 3.0 mi WSW 5.8 mph - 0.00 in Snow Light Snow
7:51 AM 19.4 °F 12.8 °F 15.8 °F 86% 29.83 in 3.0 mi West 4.6 mph - N/A Snow Light Snow
8:02 AM 19.4 °F 11.5 °F 15.8 °F 86% 29.83 in 5.0 mi WSW 5.8 mph - 0.00 in Snow Light Snow
8:41 AM 19.4 °F 10.4 °F 14.0 °F 80% 29.84 in 9.0 mi West 6.9 mph - 0.00 in   Mostly Cloudy
8:51 AM 19.0 °F 7.5 °F 12.0 °F 74% 29.89 in 10.0 mi WSW 10.4 mph - 0.00 in   Mostly Cloudy
9:51 AM 19.0 °F 5.6 °F 8.1 °F 62% 29.89 in 10.0 mi WSW 13.8 mph 19.6 mph N/A   Mostly Cloudy
10:51 AM 19.0 °F 6.1 °F 9.0 °F 65% 29.89 in 10.0 mi WSW 12.7 mph - N/A   Overcast
11:15 AM 19.4 °F 6.6 °F 8.6 °F 63% 29.83 in 10.0 mi WSW 12.7 mph - N/A   Overcast
11:51 AM 19.9 °F 11.1 °F 10.9 °F 68% 29.88 in 8.0 mi WNW 6.9 mph - 0.00 in Snow Light Snow
12:51 PM 19.9 °F 6.7 °F 10.9 °F 68% 29.86 in 2.0 mi WSW 13.8 mph - 0.00 in Snow Light Snow
1:36 PM 19.4 °F 8.6 °F 10.4 °F 68% 29.81 in 7.0 mi West 9.2 mph - 0.01 in Snow Light Snow
1:51 PM 19.9 °F 8.6 °F 10.0 °F 65% 29.86 in 9.0 mi West 10.4 mph - 0.01 in Snow Light Snow
2:51 PM 19.9 °F 6.7 °F 8.1 °F 60% 29.86 in 9.0 mi West 13.8 mph - 0.00 in Snow Light Snow
3:29 PM 21.2 °F 10.1 °F 8.6 °F 58% 29.82 in 9.0 mi West 10.4 mph - 0.00 in Snow Light Snow
3:51 PM 21.0 °F 11.4 °F 9.0 °F 60% 29.88 in 9.0 mi West 8.1 mph 18.4 mph 0.00 in Snow Light Snow
4:51 PM 19.9 °F 8.6 °F 8.1 °F 60% 29.90 in 9.0 mi WNW 10.4 mph - 0.00 in   Overcast
5:34 PM 19.4 °F 6.6 °F 10.4 °F 68% 29.86 in 2.5 mi West 12.7 mph - 0.00 in Snow Light Snow
5:42 PM 19.4 °F 10.4 °F 10.4 °F 68% 29.86 in 4.0 mi West 6.9 mph - N/A Snow Light Snow
5:51 PM 19.0 °F 8.2 °F 9.0 °F 65% 29.91 in 9.0 mi WNW 9.2 mph - 0.00 in Snow Light Snow
6:05 PM 19.4 °F 9.5 °F 10.4 °F 68% 29.86 in 1.5 mi West 8.1 mph - 0.00 in Snow Light Snow
6:29 PM 17.6 °F 6.4 °F 10.4 °F 73% 29.87 in 2.0 mi West 9.2 mph - 0.00 in Snow Light Snow
6:38 PM 17.6 °F 3.7 °F 10.4 °F 73% 29.88 in 5.0 mi West 13.8 mph - 0.00 in Snow Light Snow
6:51 PM 18.0 °F 6.9 °F 10.9 °F 74% 29.94 in 6.0 mi West 9.2 mph - 0.00 in Snow Light Snow
7:51 PM 18.0 °F 6.1 °F 12.0 °F 78% 29.96 in 3.0 mi WSW 10.4 mph - 0.00 in Snow Light Snow
8:02 PM 17.6 °F 4.3 °F 10.4 °F 73% 29.90 in 3.0 mi WSW 12.7 mph - 0.00 in Snow Light Snow
8:51 PM 17.1 °F 5.0 °F 10.9 °F 77% 29.97 in 6.0 mi WSW 10.4 mph 20.7 mph 0.00 in Snow Light Snow
9:51 PM 17.1 °F 4.3 °F 10.0 °F 74% 29.99 in 5.0 mi WSW 11.5 mph - 0.00 in Snow Light Snow
10:51 PM 17.1 °F 2.5 °F 10.0 °F 74% 30.00 in 9.0 mi West 15.0 mph 20.7 mph 0.00 in Snow Light Snow
11:51 PM 17.1 °F 2.5 °F 10.0 °F 74% 30.01 in 10.0 mi WSW 15.0 mph - 0.00 in Snow Light Snow